Regional Weather Roundup
Issued by NWS

Home | Current Version | Previous Version | Graphics & Text | Print | Product List | Glossary On
Versions: 1 2 3 4 5 6 7 8 9 10 11 12 13 14 15 16 17 18 19 20 21 22 23 24 25 26 27 28 29 30 31 32 33 34 35 36 37 38 39 40 41 42 43 44 45 46 47 48 49 50
000
ASUS45 KTFX 290919
RWRMT
MONTANA REGIONAL WEATHER ROUNDUP
NATIONAL WEATHER SERVICE GREAT FALLS MT
300 AM MDT SAT AUG 29 2015

NOTE: "FAIR" INDICATES FEW OR NO CLOUDS BELOW 12000 FEET WITH NO
SIGNIFICANT WEATHER AND/OR OBSTRUCTIONS TO VISIBILITY.

MTZ001>007-043-291000-
WEST OF THE DIVIDE

CITY           SKY/WX    TMP DP  RH WIND       PRES   REMARKS
KALISPELL      MOSUNNY   50  43  77 NW5       29.90F
MISSOULA       CLOUDY    64  49  57 SE8       29.94S HAZE
BUTTE          MOCLDY    60  41  49 S6        30.12F HAZE
MULLAN PASS    MOCLDY    62  34  35 S6        30.04F HAZE
DEER LODGE       N/A     63  45  51 CALM      30.08F
EUREKA           N/A     57  43  58 S3        29.89
HAMILTON         N/A     63  46  55 S3        29.94F
LIBBY            N/A     59  43  55 SE3       29.90S
PLAINS           N/A     53  44  71 CALM      29.91F
RONAN            N/A     54  45  71 SW2       29.95F
THOMPSON FALLS   N/A     53  43  69 CALM      29.93F
$$

MTZ008-052>055-291000-
SOUTHWEST MONTANA

CITY           SKY/WX    TMP DP  RH WIND       PRES   REMARKS
BOZEMAN        CLOUDY    62  44  51 SE7       30.06F HAZE
DILLON         MOCLDY    61  41  47 SW3       30.09R HAZE
W YELLOWSTONE  PTCLDY    43  32  65 CALM      30.23F
THREE FORKS      N/A     61  61 100 CALM      30.04F
TWIN BRIDGES     N/A     67  41  38 CALM      30.06R
$$

MTZ009-010-012-014-046-048-049-054-291000-
EAST SLOPES AND CENTRAL MONTANA

CITY           SKY/WX    TMP DP  RH WIND       PRES   REMARKS
CUT BANK       CLOUDY    62  38  40 SW5       29.95S HAZE
GREAT FALLS    CLOUDY    70  40  33 S8        29.97F HAZE
MALMSTROM AFB  CLOUDY    71  42  35 S9        29.96F
HELENA         CLOUDY    70  42  36 S7        30.01S SMOKE
CONRAD           N/A     63  46  53 S3        29.98S
$$

MTZ011-013-016-021-045-047-050-051-291000-
NORTH CENTRAL MONTANA

CITY           SKY/WX    TMP DP  RH WIND       PRES   REMARKS
HAVRE          CLOUDY    73  44  35 S15       29.87S HAZE
LEWISTOWN      CLOUDY    67  43  41 S8        30.03S HAZE
N BAR RANCH      N/A     64  41  42 W5        30.06F
CHINOOK          N/A     68  48  49 NE5       29.86F
FORT BENTON      N/A     72  45  37 CALM      29.92S
$$

MTZ017>020-022>027-061-062-291000-
NORTHEAST MONTANA

CITY           SKY/WX    TMP DP  RH WIND       PRES   REMARKS
GLASGOW        PTCLDY    63  42  46 E10       29.88S HAZE
JORDAN           N/A     66  39  37 W5        29.93R
SIDNEY         PTCLDY    55  46  71 CALM      29.92S
WOLF POINT     CLOUDY    55  42  61 E3        29.90S HAZE
MALTA            N/A     64  45  50 CALM      29.85S
PLENTYWOOD       N/A     61  45  55 E6        29.91S
POPLAR           N/A     57  45  62 N5        29.91R
SCOBEY           N/A     60  41  49 S1        29.90S
$$

MTZ028>42-056>058-291000-
SOUTHCENTRAL AND SOUTHEAST MONTANA

CITY           SKY/WX    TMP DP  RH WIND       PRES   REMARKS
BAKER          MOCLDY    57  46  66 CALM      30.00F HAZE
BILLINGS       PTCLDY    71  39  31 SW10      29.99S
LIVINGSTON     PTCLDY    67  38  34 NW10      30.07R HAZE
MILES CITY     CLEAR     64  43  46 SE12      29.95S HAZE
EKALAKA          N/A     65  42  43 SE6       30.01F
FORSYTH          N/A     77  39  25 S6        29.93S
LAUREL           N/A     64  38  38 SW1       29.97F
ROUNDUP          N/A     68  39  34 W3        29.91S
$$

REGIONAL REPORTS...DAKOTAS

CITY           SKY/WX    TMP DP  RH WIND       PRES   REMARKS
WILLISTON      CLOUDY    55  48  77 CALM      29.92S HAZE
MINOT          CLOUDY    63  55  75 SW10      29.88R HAZE
DICKINSON      CLOUDY    61  47  59 W3        29.96S HAZE
BEACH          CLOUDY    55  46  71 S6        29.98F HAZE
CROSBY           N/A     59  54  82 SW10      29.90R HAZE
BISMARCK       CLEAR     60  60 100 CALM      29.92R
GRAND FORKS    CLEAR     64  63  96 SE6       29.88R
FARGO          CLEAR     65  61  87 S12       29.92S
BUFFALO SD       N/A     65  45  48 W6        29.96F
RAPID CITY     CLEAR     59  54  83 NW3       30.05F
$$

REGIONAL REPORTS...WYOMING/IDAHO/WASHINGTON

CITY           SKY/WX    TMP DP  RH WIND       PRES   REMARKS
GILLETTE       MOCLDY    69  41  36 S9        30.09S
SHERIDAN       CLEAR     53  44  71 S7        30.05F
BUFFALO WY     CLEAR     69  33  26 CALM      30.13S
CODY           CLEAR     64  37  36 CALM      30.10F
YELLOWSTONE LA   N/A     41  37  86 CALM      30.36S
IDAHO FALLS    MOCLDY    58  51  78 NW3       30.06F
SALMON         CLOUDY    63  48  59 CALM      30.00F
BOISE          CLOUDY    79  40  24 S10       29.81R
SPOKANE        CLOUDY    70  46  42 NE12      29.76F
$$

REGIONAL REPORTS...ALBERTA

CITY           SKY/WX    TMP DP  RH WIND       PRES   REMARKS
EDMONTON       CLEAR     61  46  59 NW7       29.71R
CALGARY        MOCLDY    59  46  63 S8        29.83R
LETHBRIDGE     CLEAR     57  43  58 S17       29.87S
MEDICINE HAT   CLEAR     63  45  51 S8        29.81S
WATERTON GATE    N/A     48  41  76 N2          N/A
CARDSTON         N/A     57  39  51 SE3         N/A
MILK RIVER       N/A     63  41  45 SW8         N/A
ONEFOUR          N/A     72  37  28 SW7         N/A
$$

REGIONAL REPORTS...SASKATCHEWAN

CITY           SKY/WX    TMP DP  RH WIND       PRES   REMARKS
SWIFT CURRENT  MOCLDY    70  45  40 SW10      29.83F HAZE
REGINA         CLOUDY    59  54  82 E7        29.83F
SASKATOON      MOCLDY    68  57  68 S12       29.71F
CYPRESS HILLS    N/A     64  36  34 SW6         N/A
VAL MARIE        N/A     64  46  52 SW2         N/A
ROCKGLEN         N/A     66  43  42 S9          N/A
ASSINIBOIA       N/A     61  50  67 W10         N/A
$$



USA.gov is the U.S. government's official web portal to all federal, state and local government web resources and services.